Location: Vinland
(47.7731°N, 122.6974°W)
Time: 12:28:15
(UTC+00:00)

Tiros 1 - Visible Passes

Search period start: 26 March 2023 00:00
Search period end: 05 April 2023 00:00
Orbit: 627 x 662 km, 48.4° (Epoch: 25 March)

Date Brightness Start Highest point End Pass type
(mag) Time Alt. Az. Time Alt. Az. Time Alt. Az.
26 Mar 9.3 12:08:19 11° S 12:11:13 18° SE 12:14:27 10° E visible
27 Mar 8.5 12:32:36 14° SSW 12:36:02 32° SE 12:40:18 10° E visible
28 Mar 9.3 11:19:10 16° SE 11:19:34 16° SE 11:22:33 10° E visible
28 Mar 7.7 12:56:47 12° SW 13:01:00 53° SSE 13:05:42 10° ENE visible
29 Mar 8.4 11:43:16 27° S 11:44:22 30° SE 11:48:32 10° E visible
29 Mar 7.3 13:21:20 10° WSW 13:26:08 78° SSE 13:30:56 10° ENE visible
30 Mar 9.7 10:29:43 12° ESE 10:29:43 12° ESE 10:30:36 10° ESE visible
30 Mar 7.7 12:07:19 30° SSW 12:09:18 50° SSE 12:13:57 10° E visible
31 Mar 8.8 10:53:41 25° ESE 10:53:41 25° ESE 10:56:43 10° E visible
31 Mar 7.2 12:31:17 22° WSW 12:34:24 75° SSE 12:39:12 10° ENE visible
01 Apr 7.7 11:17:37 47° SSE 11:17:37 47° SSE 11:22:10 10° E visible
01 Apr 7.2 12:55:13 12° W 12:59:35 87° NNW 13:04:26 10° E visible
02 Apr 9.6 10:03:55 14° E 10:03:55 14° E 10:04:54 10° E visible
02 Apr 7.2 11:41:31 50° SW 11:42:39 71° SSE 11:47:26 10° ENE visible
03 Apr 8.7 10:27:47 29° E 10:27:47 29° E 10:30:24 10° E visible
03 Apr 7.1 12:05:23 29° W 12:07:49 89° N 12:12:39 10° E visible
04 Apr 7.5 10:51:37 57° ESE 10:51:37 57° ESE 10:55:39 10° ENE visible
04 Apr 7.2 12:29:13 16° W 12:33:04 82° N 12:37:53 10° E visible
